Time,TemperatureF,DewpointF,PressureIn,WindDirection,WindDirectionDegrees,WindSpeedMPH,WindSpeedGustMPH,Humidity,HourlyPrecipIn,Conditions,Clouds,dailyrainin,SoftwareType,DateUTC
2013-08-19 00:01:00,67.7,61.3,30.11,South,184,0.0,0.0,80,0.00,OVC,FEW,0.00,WeatherDisplay:10.37,2013-08-19 05:01:00,
2013-08-19 00:06:00,67.7,61.3,30.11,South,184,0.0,0.0,80,0.00,OVC,FEW,0.00,WeatherDisplay:10.37,2013-08-19 05:06:00,
2013-08-19 00:11:00,67.6,61.6,30.11,South,184,0.0,0.0,81,0.00,OVC,FEW,0.00,WeatherDisplay:10.37,2013-08-19 05:11:00,
2013-08-19 00:16:00,67.5,61.5,30.11,South,184,0.0,0.0,81,0.00,OVC,FEW,0.00,WeatherDisplay:10.37,2013-08-19 05:16:00,
2013-08-19 00:21:00,67.5,61.5,30.11,South,184,0.0,0.0,81,0.00,OVC,FEW,0.00,WeatherDisplay:10.37,2013-08-19 05:21:00,
2013-08-19 00:26:00,67.4,61.4,30.11,South,184,0.0,0.0,81,0.00,OVC,FEW,0.00,WeatherDisplay:10.37,2013-08-19 05:26:00,
2013-08-19 00:31:00,67.3,61.3,30.11,South,184,0.0,0.0,81,0.00,OVC,FEW,0.00,WeatherDisplay:10.37,2013-08-19 05:31:00,
2013-08-19 00:36:00,67.1,61.4,30.11,South,184,0.0,0.0,82,0.00,OVC,FEW,0.00,WeatherDisplay:10.37,2013-08-19 05:36:00,
2013-08-19 00:41:00,67.0,61.0,30.11,South,184,0.0,0.0,81,0.00,OVC,FEW,0.00,WeatherDisplay:10.37,2013-08-19 05:41:00,
2013-08-19 00:46:00,67.0,61.0,30.11,South,184,0.0,0.0,81,0.00,OVC,FEW,0.00,WeatherDisplay:10.37,2013-08-19 05:46:00,
2013-08-19 00:51:00,67.0,61.0,30.11,South,184,0.0,0.0,81,0.00,OVC,FEW,0.00,WeatherDisplay:10.37,2013-08-19 05:51:00,
2013-08-19 00:56:00,67.0,61.0,30.10,South,184,0.0,0.0,81,0.00,OVC,FEW,0.00,WeatherDisplay:10.37,2013-08-19 05:56:00,
2013-08-19 01:02:00,67.0,61.0,30.11,South,184,0.0,0.0,81,0.00,OVC,FEW,0.00,WeatherDisplay:10.37,2013-08-19 06:02:00,
2013-08-19 01:07:00,67.1,60.7,30.11,South,184,0.0,0.0,80,0.00,OVC,FEW,0.00,WeatherDisplay:10.37,2013-08-19 06:07:00,
2013-08-19 01:12:00,67.1,61.1,30.11,South,184,0.0,0.0,81,0.00,OVC,FEW,0.00,WeatherDisplay:10.37,2013-08-19 06:12:00,
2013-08-19 01:17:00,67.1,61.1,30.11,South,184,0.0,0.0,81,0.00,OVC,FEW,0.00,WeatherDisplay:10.37,2013-08-19 06:17:00,
2013-08-19 01:22:00,67.1,61.1,30.11,South,184,0.0,0.0,81,0.00,OVC,FEW,0.00,WeatherDisplay:10.37,2013-08-19 06:22:00,
2013-08-19 01:27:00,67.0,61.0,30.11,South,184,0.0,0.0,81,0.00,OVC,FEW,0.00,WeatherDisplay:10.37,2013-08-19 06:27:00,
2013-08-19 01:32:00,67.0,60.6,30.10,South,184,0.0,0.0,80,0.00,OVC,FEW,0.00,WeatherDisplay:10.37,2013-08-19 06:32:00,
2013-08-19 01:37:00,66.9,60.5,30.10,South,184,0.0,0.0,80,0.00,OVC,FEW,0.00,WeatherDisplay:10.37,2013-08-19 06:37:00,
2013-08-19 01:42:00,66.8,60.8,30.10,South,184,0.0,0.0,81,0.00,OVC,FEW,0.00,WeatherDisplay:10.37,2013-08-19 06:42:00,
2013-08-19 01:47:00,66.7,60.7,30.11,South,184,0.0,0.0,81,0.00,OVC,FEW,0.00,WeatherDisplay:10.37,2013-08-19 06:47:00,
2013-08-19 01:52:00,66.6,60.6,30.11,South,184,0.0,0.0,81,0.00,OVC,FEW,0.00,WeatherDisplay:10.37,2013-08-19 06:52:00,
2013-08-19 01:57:00,66.5,60.5,30.11,South,184,0.0,0.0,81,0.00,OVC,FEW,0.00,WeatherDisplay:10.37,2013-08-19 06:57:00,
2013-08-19 02:02:00,66.5,60.8,30.11,South,184,0.0,0.0,82,0.00,OVC,FEW,0.00,WeatherDisplay:10.37,2013-08-19 07:02:00,
2013-08-19 02:07:00,66.4,60.7,30.11,South,184,0.0,0.0,82,0.00,OVC,FEW,0.00,WeatherDisplay:10.37,2013-08-19 07:07:00,
2013-08-19 02:12:00,66.3,60.6,30.11,South,184,0.0,0.0,82,0.00,OVC,FEW,0.00,WeatherDisplay:10.37,2013-08-19 07:12:00,
2013-08-19 02:17:00,66.2,60.5,30.11,South,184,0.0,0.0,82,0.00,OVC,FEW,0.00,WeatherDisplay:10.37,2013-08-19 07:17:00,
2013-08-19 02:22:00,66.1,60.8,30.10,South,184,0.0,0.0,83,0.00,OVC,FEW,0.00,WeatherDisplay:10.37,2013-08-19 07:22:00,
2013-08-19 02:27:00,66.0,60.7,30.10,South,184,0.0,0.0,83,0.00,OVC,FEW,0.00,WeatherDisplay:10.37,2013-08-19 07:27:00,
2013-08-19 02:32:00,65.9,60.6,30.10,South,184,0.0,0.0,83,0.00,OVC,FEW,0.00,WeatherDisplay:10.37,2013-08-19 07:32:00,
2013-08-19 02:37:00,65.8,60.5,30.10,South,184,0.0,0.0,83,0.00,OVC,FEW,0.00,WeatherDisplay:10.37,2013-08-19 07:37:00,
2013-08-19 02:42:00,65.7,60.4,30.10,South,184,0.0,0.0,83,0.00,OVC,FEW,0.00,WeatherDisplay:10.37,2013-08-19 07:42:00,
2013-08-19 02:47:00,65.7,60.4,30.10,South,184,0.0,0.0,83,0.00,OVC,FEW,0.00,WeatherDisplay:10.37,2013-08-19 07:47:00,
2013-08-19 02:52:00,65.6,60.3,30.10,South,184,0.0,0.0,83,0.00,OVC,FEW,0.00,WeatherDisplay:10.37,2013-08-19 07:52:00,
2013-08-19 02:57:00,65.5,60.5,30.10,South,184,0.0,0.0,84,0.00,OVC,FEW,0.00,WeatherDisplay:10.37,2013-08-19 07:57:00,
2013-08-19 03:02:00,65.4,60.4,30.10,South,184,0.0,0.0,84,0.00,OVC,FEW,0.00,WeatherDisplay:10.37,2013-08-19 08:02:00,
2013-08-19 03:07:00,65.4,60.4,30.11,South,184,0.0,0.0,84,0.00,OVC,FEW,0.00,WeatherDisplay:10.37,2013-08-19 08:07:00,
2013-08-19 03:12:00,65.2,60.2,30.10,South,184,0.0,0.0,84,0.00,OVC,FEW,0.00,WeatherDisplay:10.37,2013-08-19 08:12:00,
2013-08-19 03:17:00,65.2,60.6,30.10,South,184,0.0,0.0,85,0.00,OVC,FEW,0.00,WeatherDisplay:10.37,2013-08-19 08:17:00,
2013-08-19 03:22:00,65.1,60.5,30.10,South,184,0.0,0.0,85,0.00,OVC,FEW,0.00,WeatherDisplay:10.37,2013-08-19 08:22:00,
2013-08-19 03:27:00,65.0,60.4,30.10,South,184,0.0,0.0,85,0.00,OVC,FEW,0.00,WeatherDisplay:10.37,2013-08-19 08:27:00,
2013-08-19 03:32:00,64.9,60.3,30.10,South,184,0.0,0.0,85,0.00,OVC,FEW,0.00,WeatherDisplay:10.37,2013-08-19 08:32:00,
2013-08-19 03:37:00,64.8,60.5,30.10,South,184,0.0,0.0,86,0.00,OVC,FEW,0.00,WeatherDisplay:10.37,2013-08-19 08:37:00,
2013-08-19 03:42:00,64.7,60.4,30.11,South,184,0.0,0.0,86,0.00,OVC,FEW,0.00,WeatherDisplay:10.37,2013-08-19 08:42:00,
2013-08-19 03:47:00,64.7,60.4,30.10,South,184,0.0,0.0,86,0.00,OVC,FEW,0.00,WeatherDisplay:10.37,2013-08-19 08:47:00,
2013-08-19 03:52:00,64.6,60.3,30.10,South,184,0.0,0.0,86,0.00,OVC,FEW,0.00,WeatherDisplay:10.37,2013-08-19 08:52:00,
2013-08-19 03:57:00,64.6,60.3,30.10,South,184,0.0,0.0,86,0.00,OVC,FEW,0.00,WeatherDisplay:10.37,2013-08-19 08:57:00,
2013-08-19 04:02:00,64.6,60.3,30.10,South,184,0.0,0.0,86,0.00,OVC,FEW,0.00,WeatherDisplay:10.37,2013-08-19 09:02:00,
2013-08-19 04:07:00,64.5,60.2,30.10,South,184,0.0,0.0,86,0.00,OVC,FEW,0.00,WeatherDisplay:10.37,2013-08-19 09:07:00,
2013-08-19 04:12:00,64.5,60.5,30.10,South,184,0.0,0.0,87,0.00,OVC,FEW,0.00,WeatherDisplay:10.37,2013-08-19 09:12:00,
2013-08-19 04:17:00,64.5,60.2,30.10,South,184,0.0,0.0,86,0.00,OVC,FEW,0.00,WeatherDisplay:10.37,2013-08-19 09:17:00,
2013-08-19 04:22:00,64.5,60.5,30.10,South,184,0.0,0.0,87,0.00,OVC,FEW,0.00,WeatherDisplay:10.37,2013-08-19 09:22:00,
2013-08-19 04:27:00,64.4,60.1,30.10,South,184,0.0,0.0,86,0.00,OVC,FEW,0.00,WeatherDisplay:10.37,2013-08-19 09:27:00,
2013-08-19 04:32:00,64.4,60.4,30.10,South,184,0.0,0.0,87,0.00,OVC,FEW,0.00,WeatherDisplay:10.37,2013-08-19 09:32:00,
2013-08-19 04:37:00,64.3,60.3,30.10,South,184,0.0,0.0,87,0.00,OVC,FEW,0.00,WeatherDisplay:10.37,2013-08-19 09:37:00,
2013-08-19 04:42:00,64.3,60.3,30.10,South,184,0.0,0.0,87,0.00,OVC,FEW,0.00,WeatherDisplay:10.37,2013-08-19 09:42:00,
2013-08-19 04:47:00,64.2,60.2,30.10,South,184,0.0,0.0,87,0.00,OVC,FEW,0.00,WeatherDisplay:10.37,2013-08-19 09:47:00,
2013-08-19 04:52:00,64.1,60.5,30.10,South,184,0.0,0.0,88,0.00,OVC,FEW,0.00,WeatherDisplay:10.37,2013-08-19 09:52:00,
2013-08-19 04:57:00,64.0,60.4,30.10,South,184,0.0,0.0,88,0.00,OVC,FEW,0.00,WeatherDisplay:10.37,2013-08-19 09:57:00,
2013-08-19 05:02:00,64.0,60.4,30.10,South,184,0.0,0.0,88,0.00,OVC,FEW,0.00,WeatherDisplay:10.37,2013-08-19 10:02:00,
2013-08-19 05:07:00,64.1,60.5,30.10,South,184,0.0,0.0,88,0.00,OVC,FEW,0.00,WeatherDisplay:10.37,2013-08-19 10:07:00,
2013-08-19 05:12:00,64.1,60.5,30.10,South,184,0.0,0.0,88,0.00,OVC,FEW,0.00,WeatherDisplay:10.37,2013-08-19 10:12:00,
2013-08-19 05:17:00,64.1,60.2,30.10,South,184,0.0,0.0,87,0.00,OVC,FEW,0.00,WeatherDisplay:10.37,2013-08-19 10:17:00,
2013-08-19 05:22:00,64.2,60.2,30.10,South,184,0.0,0.0,87,0.00,OVC,FEW,0.00,WeatherDisplay:10.37,2013-08-19 10:22:00,
2013-08-19 05:27:00,64.3,60.3,30.10,South,184,0.0,0.0,87,0.00,OVC,FEW,0.00,WeatherDisplay:10.37,2013-08-19 10:27:00,
2013-08-19 05:32:00,64.3,60.3,30.10,South,184,0.0,0.0,87,0.00,OVC,FEW,0.00,WeatherDisplay:10.37,2013-08-19 10:32:00,
2013-08-19 05:37:00,64.3,60.3,30.10,South,184,0.0,0.0,87,0.00,OVC,FEW,0.00,WeatherDisplay:10.37,2013-08-19 10:37:00,
2013-08-19 05:42:00,64.2,60.2,30.10,South,184,0.0,0.0,87,0.00,OVC,FEW,0.00,WeatherDisplay:10.37,2013-08-19 10:42:00,
2013-08-19 05:47:00,64.1,60.2,30.11,South,184,0.0,0.0,87,0.00,OVC,FEW,0.00,WeatherDisplay:10.37,2013-08-19 10:47:00,
2013-08-19 05:52:00,64.0,60.1,30.11,South,184,0.0,0.0,87,0.00,OVC,FEW,0.00,WeatherDisplay:10.37,2013-08-19 10:52:00,
2013-08-19 05:57:00,63.9,60.3,30.11,South,184,0.0,0.0,88,0.00,OVC,FEW,0.00,WeatherDisplay:10.37,2013-08-19 10:57:00,
2013-08-19 06:02:00,63.8,60.2,30.11,South,184,0.0,0.0,88,0.00,OVC,FEW,0.00,WeatherDisplay:10.37,2013-08-19 11:02:00,
2013-08-19 06:07:00,63.8,60.2,30.11,South,184,0.0,0.0,88,0.00,OVC,FEW,0.00,WeatherDisplay:10.37,2013-08-19 11:07:00,
2013-08-19 06:12:00,63.7,60.1,30.11,South,184,0.0,0.0,88,0.00,OVC,FEW,0.00,WeatherDisplay:10.37,2013-08-19 11:12:00,
2013-08-19 06:17:00,63.7,60.1,30.11,South,184,0.0,0.0,88,0.00,OVC,FEW,0.00,WeatherDisplay:10.37,2013-08-19 11:17:00,
2013-08-19 06:22:00,63.7,60.1,30.11,South,184,0.0,0.0,88,0.00,OVC,FEW,0.00,WeatherDisplay:10.37,2013-08-19 11:22:00,
2013-08-19 06:27:00,63.7,60.1,30.11,South,184,0.0,0.0,88,0.00,OVC,FEW,0.00,WeatherDisplay:10.37,2013-08-19 11:27:00,
2013-08-19 06:32:00,63.7,60.1,30.12,South,184,0.0,0.0,88,0.00,OVC,FEW,0.00,WeatherDisplay:10.37,2013-08-19 11:32:00,
2013-08-19 06:37:00,63.7,60.1,30.11,South,184,0.0,0.0,88,0.00,OVC,FEW,0.00,WeatherDisplay:10.37,2013-08-19 11:37:00,
2013-08-19 06:42:00,63.7,60.1,30.12,South,184,0.0,0.0,88,0.00,OVC,FEW,0.00,WeatherDisplay:10.37,2013-08-19 11:42:00,
2013-08-19 06:47:00,63.8,60.2,30.12,South,184,0.0,0.0,88,0.00,OVC,FEW,0.00,WeatherDisplay:10.37,2013-08-19 11:47:00,
2013-08-19 06:52:00,63.9,60.3,30.12,South,184,0.0,0.0,88,0.00,OVC,FEW,0.00,WeatherDisplay:10.37,2013-08-19 11:52:00,
2013-08-19 06:57:00,64.0,60.4,30.12,South,184,0.0,0.0,88,0.00,OVC,FEW,0.00,WeatherDisplay:10.37,2013-08-19 11:57:00,
2013-08-19 07:02:00,64.1,60.5,30.12,South,184,0.0,0.0,88,0.00,OVC,FEW,0.00,WeatherDisplay:10.37,2013-08-19 12:02:00,
2013-08-19 07:07:00,64.3,61.0,30.11,South,184,0.0,0.0,89,0.00,OVC,FEW,0.00,WeatherDisplay:10.37,2013-08-19 12:07:00,
2013-08-19 07:12:00,64.4,60.8,30.11,South,184,0.0,0.0,88,0.00,OVC,FEW,0.00,WeatherDisplay:10.37,2013-08-19 12:12:00,
2013-08-19 07:17:00,64.7,61.1,30.11,South,184,0.0,0.0,88,0.00,OVC,FEW,0.00,WeatherDisplay:10.37,2013-08-19 12:17:00,
2013-08-19 07:22:00,64.9,61.3,30.11,South,184,0.0,1.2,88,0.00,OVC,FEW,0.00,WeatherDisplay:10.37,2013-08-19 12:22:00,
2013-08-19 07:27:00,65.3,61.7,30.11,South,184,0.0,1.2,88,0.00,OVC,FEW,0.00,WeatherDisplay:10.37,2013-08-19 12:27:00,
2013-08-19 07:32:00,65.7,61.7,30.11,South,184,0.0,0.0,87,0.00,OVC,FEW,0.00,WeatherDisplay:10.37,2013-08-19 12:32:00,
2013-08-19 07:37:00,66.1,61.8,30.12,South,184,0.0,0.0,86,0.00,OVC,FEW,0.00,WeatherDisplay:10.37,2013-08-19 12:37:00,
2013-08-19 07:42:00,66.4,62.1,30.12,South,184,0.0,0.0,86,0.00,OVC,FEW,0.00,WeatherDisplay:10.37,2013-08-19 12:42:00,
2013-08-19 07:47:00,66.7,62.0,30.12,SW,236,1.0,2.3,85,0.00,OVC,FEW,0.00,WeatherDisplay:10.37,2013-08-19 12:47:00,
2013-08-19 07:52:00,67.0,62.3,30.12,SW,236,0.0,0.0,85,0.00,OVC,FEW,0.00,WeatherDisplay:10.37,2013-08-19 12:52:00,
2013-08-19 07:57:00,67.3,62.6,30.12,SW,236,0.0,0.0,85,0.00,OVC,FEW,0.00,WeatherDisplay:10.37,2013-08-19 12:57:00,
2013-08-19 08:02:00,67.5,62.5,30.12,SW,236,0.1,1.2,84,0.00,OVC,FEW,0.00,WeatherDisplay:10.37,2013-08-19 13:02:00,
2013-08-19 08:07:00,67.7,62.7,30.12,WSW,246,0.1,1.2,84,0.00,OVC,FEW,0.00,WeatherDisplay:10.37,2013-08-19 13:07:00,
2013-08-19 08:12:00,67.9,62.5,30.12,WSW,246,0.1,1.2,83,0.00,OVC,FEW,0.00,WeatherDisplay:10.37,2013-08-19 13:12:00,
2013-08-19 08:17:00,68.1,62.7,30.12,WSW,245,0.1,1.2,83,0.00,OVC,FEW,0.00,WeatherDisplay:10.37,2013-08-19 13:17:00,
2013-08-19 08:22:00,68.4,63.0,30.12,WSW,245,0.0,0.0,83,0.00,OVC,FEW,0.00,WeatherDisplay:10.37,2013-08-19 13:22:00,
2013-08-19 08:27:00,68.6,63.2,30.12,WSW,245,0.1,1.2,83,0.00,OVC,FEW,0.00,WeatherDisplay:10.37,2013-08-19 13:27:00,
2013-08-19 08:32:00,68.9,63.2,30.12,WSW,245,0.2,1.2,82,0.00,OVC,FEW,0.00,WeatherDisplay:10.37,2013-08-19 13:32:00,
2013-08-19 08:37:00,69.3,63.6,30.12,WSW,245,0.0,0.0,82,0.00,OVC,FEW,0.00,WeatherDisplay:10.37,2013-08-19 13:37:00,
2013-08-19 08:42:00,69.6,63.5,30.13,WSW,245,0.2,1.2,81,0.00,OVC,FEW,0.00,WeatherDisplay:10.37,2013-08-19 13:42:00,
2013-08-19 08:47:00,69.8,63.7,30.13,WSW,245,0.1,1.2,81,0.00,OVC,FEW,0.00,WeatherDisplay:10.37,2013-08-19 13:47:00,
2013-08-19 08:52:00,70.1,63.6,30.13,SW,236,0.9,3.5,80,0.00,OVC,FEW,0.00,WeatherDisplay:10.37,2013-08-19 13:52:00,
2013-08-19 08:57:00,70.4,63.9,30.12,SW,236,0.2,1.2,80,0.00,OVC,FEW,0.00,WeatherDisplay:10.37,2013-08-19 13:57:00,
2013-08-19 09:02:00,70.8,64.0,30.12,SW,236,0.1,1.2,79,0.00,OVC,FEW,0.00,WeatherDisplay:10.37,2013-08-19 14:02:00,
2013-08-19 09:07:00,71.2,63.6,30.12,SW,221,0.1,4.0,77,0.00,OVC,FEW,0.00,WeatherDisplay:10.37,2013-08-19 14:07:00,
2013-08-19 09:12:00,71.6,64.0,30.12,SW,221,0.3,1.2,77,0.00,OVC,FEW,0.00,WeatherDisplay:10.37,2013-08-19 14:12:00,
2013-08-19 09:17:00,72.0,64.8,30.12,SW,221,0.3,2.3,78,0.00,OVC,FEW,0.00,WeatherDisplay:10.37,2013-08-19 14:17:00,
2013-08-19 09:22:00,72.4,64.0,30.12,SW,221,0.1,1.2,75,0.00,OVC,FEW,0.00,WeatherDisplay:10.37,2013-08-19 14:22:00,
2013-08-19 09:27:00,72.9,64.9,30.13,SW,221,0.1,1.2,76,0.00,OVC,FEW,0.00,WeatherDisplay:10.37,2013-08-19 14:27:00,
2013-08-19 09:32:00,73.3,64.5,30.13,SW,221,0.2,1.2,74,0.00,OVC,FEW,0.00,WeatherDisplay:10.37,2013-08-19 14:32:00,
2013-08-19 09:37:00,73.9,65.1,30.13,SW,221,0.1,2.3,74,0.00,OVC,FEW,0.00,WeatherDisplay:10.37,2013-08-19 14:37:00,
2013-08-19 09:42:00,74.5,65.3,30.13,West,259,1.2,2.0,73,0.00,OVC,FEW,0.00,WeatherDisplay:10.37,2013-08-19 14:42:00,
2013-08-19 09:47:00,75.0,65.4,30.12,SW,225,0.4,1.2,72,0.00,OVC,FEW,0.00,WeatherDisplay:10.37,2013-08-19 14:47:00,
2013-08-19 09:52:00,75.5,65.8,30.12,SW,225,0.0,1.2,72,0.00,OVC,FEW,0.00,WeatherDisplay:10.37,2013-08-19 14:52:00,
2013-08-19 09:57:00,75.9,65.4,30.12,SW,225,0.2,1.2,70,0.00,OVC,FEW,0.00,WeatherDisplay:10.37,2013-08-19 14:57:00,
2013-08-19 10:02:00,76.1,66.0,30.12,SW,225,0.4,1.2,71,0.00,OVC,FEW,0.00,WeatherDisplay:10.37,2013-08-19 15:02:00,
2013-08-19 10:07:00,76.1,65.6,30.12,SW,225,0.2,1.2,70,0.00,OVC,FEW,0.00,WeatherDisplay:10.37,2013-08-19 15:07:00,
2013-08-19 10:12:00,76.5,66.0,30.12,SW,225,0.3,1.2,70,0.00,OVC,FEW,0.00,WeatherDisplay:10.37,2013-08-19 15:12:00,
2013-08-19 10:17:00,76.8,65.9,30.12,SW,225,0.4,1.2,69,0.00,OVC,FEW,0.00,WeatherDisplay:10.37,2013-08-19 15:17:00,
2013-08-19 10:23:00,77.0,65.6,30.12,WSW,258,0.8,1.2,68,0.00,OVC,FEW,0.00,WeatherDisplay:10.37,2013-08-19 15:23:00,
2013-08-19 10:28:00,77.6,66.2,30.12,West,277,0.6,2.3,68,0.00,OVC,FEW,0.00,WeatherDisplay:10.37,2013-08-19 15:28:00,
2013-08-19 10:33:00,78.1,65.4,30.12,West,275,0.5,2.3,65,0.00,OVC,FEW,0.00,WeatherDisplay:10.37,2013-08-19 15:33:00,
2013-08-19 10:38:00,78.4,65.7,30.11,WSW,257,0.6,1.2,65,0.00,OVC,FEW,0.00,WeatherDisplay:10.37,2013-08-19 15:38:00,
2013-08-19 10:43:00,78.7,65.9,30.11,SSW,205,0.2,1.2,65,0.00,OVC,FEW,0.00,WeatherDisplay:10.37,2013-08-19 15:43:00,
2013-08-19 10:48:00,79.4,66.2,30.11,SSW,207,0.2,2.3,64,0.00,OVC,FEW,0.00,WeatherDisplay:10.37,2013-08-19 15:48:00,
2013-08-19 10:53:00,80.2,66.5,30.11,SSW,213,0.7,1.2,63,0.00,OVC,FEW,0.00,WeatherDisplay:10.37,2013-08-19 15:53:00,
2013-08-19 10:58:00,80.5,66.3,30.11,WSW,240,0.9,3.0,62,0.00,OVC,FEW,0.00,WeatherDisplay:10.37,2013-08-19 15:58:00,
2013-08-19 11:03:00,80.6,65.9,30.11,SSW,193,1.1,2.3,61,0.00,OVC,FEW,0.00,WeatherDisplay:10.37,2013-08-19 16:03:00,
2013-08-19 11:08:00,80.9,66.7,30.11,SW,227,0.2,2.3,62,0.00,OVC,FEW,0.00,WeatherDisplay:10.37,2013-08-19 16:08:00,
2013-08-19 11:13:00,81.4,66.2,30.11,SSW,201,0.6,2.3,60,0.00,OVC,FEW,0.00,WeatherDisplay:10.37,2013-08-19 16:13:00,
2013-08-19 11:19:00,82.3,67.5,30.11,SSW,201,0.4,2.0,61,0.00,OVC,FEW,0.00,WeatherDisplay:10.37,2013-08-19 16:19:00,
2013-08-19 11:33:00,83.6,65.7,30.11,SW,223,1.3,2.3,55,0.00,OVC,FEW,0.00,WeatherDisplay:10.37,2013-08-19 16:33:00,
2013-08-19 12:51:00,85.5,65.3,30.09,SW,222,1.2,5.0,51,0.00,OVC,FEW,0.00,WeatherDisplay:10.37,2013-08-19 17:51:00,
2013-08-19 12:56:00,86.2,65.4,30.09,WSW,250,0.8,2.3,50,0.00,OVC,FEW,0.00,WeatherDisplay:10.37,2013-08-19 17:56:00,
2013-08-19 13:01:00,86.2,66.5,30.09,WSW,248,0.9,2.3,52,0.00,OVC,FEW,0.00,WeatherDisplay:10.37,2013-08-19 18:01:00,
2013-08-19 13:06:00,86.0,66.9,30.09,SSW,204,0.2,3.5,53,0.00,OVC,FEW,0.00,WeatherDisplay:10.37,2013-08-19 18:06:00,
2013-08-19 13:11:00,86.0,64.6,30.09,WSW,238,1.0,2.3,49,0.00,OVC,FEW,0.00,WeatherDisplay:10.37,2013-08-19 18:11:00,
2013-08-19 13:16:00,85.5,64.7,30.09,WSW,247,1.0,2.3,50,0.00,OVC,FEW,0.00,WeatherDisplay:10.37,2013-08-19 18:16:00,
2013-08-19 13:21:00,86.0,65.8,30.09,West,275,0.7,3.5,51,0.00,OVC,FEW,0.00,WeatherDisplay:10.37,2013-08-19 18:21:00,
2013-08-19 13:26:00,86.3,64.9,30.08,WSW,245,0.4,1.2,49,0.00,OVC,FEW,0.00,WeatherDisplay:10.37,2013-08-19 18:26:00,
2013-08-19 13:31:00,86.1,65.3,30.09,SW,234,1.1,2.3,50,0.00,OVC,FEW,0.00,WeatherDisplay:10.37,2013-08-19 18:31:00,
2013-08-19 13:36:00,85.4,64.1,30.09,SW,227,2.0,3.5,49,0.00,OVC,FEW,0.00,WeatherDisplay:10.37,2013-08-19 18:36:00,
2013-08-19 13:41:00,85.1,64.4,30.08,WSW,257,1.2,3.5,50,0.00,OVC,FEW,0.00,WeatherDisplay:10.37,2013-08-19 18:41:00,
2013-08-19 13:46:00,85.0,64.8,30.08,West,262,0.7,2.3,51,0.00,OVC,FEW,0.00,WeatherDisplay:10.37,2013-08-19 18:46:00,
2013-08-19 13:51:00,84.6,65.0,30.08,ESE,111,0.8,2.3,52,0.00,OVC,FEW,0.00,WeatherDisplay:10.37,2013-08-19 18:51:00,
2013-08-19 13:56:00,84.7,64.0,30.07,SSE,159,0.6,2.3,50,0.00,OVC,FEW,0.00,WeatherDisplay:10.37,2013-08-19 18:56:00,
2013-08-19 14:01:00,84.8,64.7,30.07,South,181,0.8,2.3,51,0.00,OVC,FEW,0.00,WeatherDisplay:10.37,2013-08-19 19:01:00,
2013-08-19 14:06:00,84.8,64.7,30.08,WSW,253,0.4,1.2,51,0.00,OVC,FEW,0.00,WeatherDisplay:10.37,2013-08-19 19:06:00,
2013-08-19 14:11:00,85.5,66.4,30.07,WSW,254,0.7,3.5,53,0.00,OVC,FEW,0.00,WeatherDisplay:10.37,2013-08-19 19:11:00,
2013-08-19 14:16:00,86.5,65.1,30.07,WSW,242,2.1,3.5,49,0.00,OVC,FEW,0.00,WeatherDisplay:10.37,2013-08-19 19:16:00,
2013-08-19 14:21:00,87.0,64.3,30.07,WSW,242,1.0,3.0,47,0.00,OVC,FEW,0.00,WeatherDisplay:10.37,2013-08-19 19:21:00,
2013-08-19 14:26:00,87.2,63.9,30.07,SW,220,1.4,3.5,46,0.00,OVC,FEW,0.00,WeatherDisplay:10.37,2013-08-19 19:26:00,
2013-08-19 14:31:00,86.4,63.2,30.07,SSW,211,2.2,4.6,46,0.00,OVC,FEW,0.00,WeatherDisplay:10.37,2013-08-19 19:31:00,
2013-08-19 14:36:00,85.8,63.8,30.07,WSW,238,2.0,3.5,48,0.00,OVC,FEW,0.00,WeatherDisplay:10.37,2013-08-19 19:36:00,
2013-08-19 14:41:00,85.6,64.2,30.06,WSW,239,0.4,1.2,49,0.00,OVC,FEW,0.00,WeatherDisplay:10.37,2013-08-19 19:41:00,
2013-08-19 14:46:00,85.0,63.7,30.06,WSW,251,0.9,2.3,49,0.00,OVC,FEW,0.00,WeatherDisplay:10.37,2013-08-19 19:46:00,
2013-08-19 14:51:00,84.4,63.7,30.06,SW,224,0.8,2.3,50,0.00,OVC,FEW,0.00,WeatherDisplay:10.37,2013-08-19 19:51:00,
2013-08-19 14:56:00,84.5,64.4,30.06,SW,224,0.3,1.2,51,0.00,OVC,FEW,0.00,WeatherDisplay:10.37,2013-08-19 19:56:00,
2013-08-19 15:01:00,85.0,64.8,30.06,SW,235,0.6,2.3,51,0.00,OVC,FEW,0.00,WeatherDisplay:10.37,2013-08-19 20:01:00,
2013-08-19 15:06:00,85.5,64.7,30.06,SW,214,0.8,2.3,50,0.00,OVC,FEW,0.00,WeatherDisplay:10.37,2013-08-19 20:06:00,
2013-08-19 15:12:00,85.6,64.8,30.06,SSW,196,0.5,1.2,50,0.00,OVC,FEW,0.00,WeatherDisplay:10.37,2013-08-19 20:12:00,
2013-08-19 15:17:00,85.6,64.8,30.06,SE,133,0.8,2.3,50,0.00,OVC,FEW,0.00,WeatherDisplay:10.37,2013-08-19 20:17:00,
2013-08-19 15:22:00,85.2,63.9,30.05,South,187,1.7,3.5,49,0.00,OVC,FEW,0.00,WeatherDisplay:10.37,2013-08-19 20:22:00,
2013-08-19 15:27:00,84.6,63.9,30.05,WSW,249,1.2,3.5,50,0.00,OVC,FEW,0.00,WeatherDisplay:10.37,2013-08-19 20:27:00,
2013-08-19 15:32:00,84.2,64.7,30.05,SW,235,0.5,1.2,52,0.00,OVC,FEW,0.00,WeatherDisplay:10.37,2013-08-19 20:32:00,
2013-08-19 15:37:00,84.8,65.2,30.05,West,273,1.1,2.3,52,0.00,OVC,FEW,0.00,WeatherDisplay:10.37,2013-08-19 20:37:00,
2013-08-19 15:42:00,85.2,65.6,30.05,WSW,240,1.2,2.3,52,0.00,OVC,FEW,0.00,WeatherDisplay:10.37,2013-08-19 20:42:00,
2013-08-19 15:47:00,84.8,64.1,30.05,SW,232,1.6,3.5,50,0.00,OVC,FEW,0.00,WeatherDisplay:10.37,2013-08-19 20:47:00,
2013-08-19 15:52:00,84.3,64.8,30.05,East,87,0.7,2.3,52,0.00,OVC,FEW,0.00,WeatherDisplay:10.37,2013-08-19 20:52:00,
2013-08-19 15:57:00,84.0,64.5,30.05,SW,230,1.8,3.5,52,0.00,OVC,FEW,0.00,WeatherDisplay:10.37,2013-08-19 20:57:00,
2013-08-19 16:02:00,83.6,64.1,30.05,WSW,246,1.0,2.3,52,0.00,OVC,FEW,0.00,WeatherDisplay:10.37,2013-08-19 21:02:00,
2013-08-19 16:07:00,83.2,64.3,30.05,WSW,255,1.9,3.5,53,0.00,OVC,FEW,0.00,WeatherDisplay:10.37,2013-08-19 21:07:00,
2013-08-19 16:12:00,83.3,64.4,30.05,SW,227,0.4,1.2,53,0.00,OVC,FEW,0.00,WeatherDisplay:10.37,2013-08-19 21:12:00,
2013-08-19 16:17:00,83.8,64.8,30.05,SW,227,0.8,1.2,53,0.00,OVC,FEW,0.00,WeatherDisplay:10.37,2013-08-19 21:17:00,
2013-08-19 16:22:00,84.6,65.6,30.05,SW,223,0.8,2.3,53,0.00,OVC,FEW,0.00,WeatherDisplay:10.37,2013-08-19 21:22:00,
2013-08-19 16:27:00,85.2,66.1,30.04,SW,229,1.1,2.3,53,0.00,OVC,FEW,0.00,WeatherDisplay:10.37,2013-08-19 21:27:00,
2013-08-19 16:32:00,85.4,64.6,30.04,SW,229,0.5,2.0,50,0.00,OVC,FEW,0.00,WeatherDisplay:10.37,2013-08-19 21:32:00,
2013-08-19 16:37:00,85.7,65.5,30.05,ENE,77,0.6,2.3,51,0.00,OVC,FEW,0.00,WeatherDisplay:10.37,2013-08-19 21:37:00,
2013-08-19 16:42:00,85.9,64.5,30.04,SSE,163,0.7,2.3,49,0.00,OVC,FEW,0.00,WeatherDisplay:10.37,2013-08-19 21:42:00,
2013-08-19 16:47:00,86.1,65.9,30.04,NW,305,0.8,2.3,51,0.00,OVC,FEW,0.00,WeatherDisplay:10.37,2013-08-19 21:47:00,
2013-08-19 16:52:00,85.7,64.3,30.04,West,264,1.1,2.3,49,0.00,OVC,FEW,0.00,WeatherDisplay:10.37,2013-08-19 21:52:00,
2013-08-19 16:57:00,85.2,65.0,30.04,West,264,0.5,2.0,51,0.00,OVC,FEW,0.00,WeatherDisplay:10.37,2013-08-19 21:57:00,
2013-08-19 17:02:00,84.6,64.5,30.04,West,265,1.1,2.0,51,0.00,OVC,FEW,0.00,WeatherDisplay:10.37,2013-08-19 22:02:00,
2013-08-19 17:07:00,84.3,63.6,30.04,WSW,240,2.3,3.5,50,0.00,OVC,FEW,0.00,WeatherDisplay:10.37,2013-08-19 22:07:00,
2013-08-19 17:12:00,84.1,64.0,30.04,SSW,208,0.6,2.3,51,0.00,OVC,FEW,0.00,WeatherDisplay:10.37,2013-08-19 22:12:00,
2013-08-19 17:17:00,83.8,64.3,30.04,WSW,248,1.6,3.5,52,0.00,OVC,FEW,0.00,WeatherDisplay:10.37,2013-08-19 22:17:00,
2013-08-19 17:22:00,83.5,64.6,30.04,SW,222,0.6,3.5,53,0.00,OVC,FEW,0.00,WeatherDisplay:10.37,2013-08-19 22:22:00,
2013-08-19 17:27:00,83.4,64.5,30.04,SW,221,0.5,1.2,53,0.00,OVC,FEW,0.00,WeatherDisplay:10.37,2013-08-19 22:27:00,
2013-08-19 17:32:00,83.3,64.4,30.04,SW,228,1.5,3.5,53,0.00,OVC,FEW,0.00,WeatherDisplay:10.37,2013-08-19 22:32:00,
2013-08-19 17:37:00,83.2,64.8,30.04,WSW,238,1.0,2.3,54,0.00,OVC,FEW,0.00,WeatherDisplay:10.37,2013-08-19 22:37:00,
2013-08-19 17:42:00,83.3,64.9,30.04,SSW,209,1.9,2.3,54,0.00,OVC,FEW,0.00,WeatherDisplay:10.37,2013-08-19 22:42:00,
2013-08-19 17:47:00,83.0,64.6,30.04,SSW,199,0.4,2.0,54,0.00,OVC,FEW,0.00,WeatherDisplay:10.37,2013-08-19 22:47:00,
2013-08-19 17:52:00,82.7,63.8,30.04,SW,232,1.3,2.3,53,0.00,OVC,FEW,0.00,WeatherDisplay:10.37,2013-08-19 22:52:00,
2013-08-19 17:57:00,82.5,64.2,30.04,WSW,237,1.5,3.5,54,0.00,OVC,FEW,0.00,WeatherDisplay:10.37,2013-08-19 22:57:00,
2013-08-19 18:02:00,82.4,64.1,30.04,WSW,238,0.7,3.5,54,0.00,OVC,FEW,0.00,WeatherDisplay:10.37,2013-08-19 23:02:00,
2013-08-19 18:07:00,82.3,64.5,30.04,WSW,238,1.0,2.3,55,0.00,OVC,FEW,0.00,WeatherDisplay:10.37,2013-08-19 23:07:00,
2013-08-19 18:12:00,82.2,64.9,30.03,WSW,238,0.1,1.2,56,0.00,OVC,FEW,0.00,WeatherDisplay:10.37,2013-08-19 23:12:00,
2013-08-19 18:17:00,82.1,65.4,30.03,WSW,238,0.0,1.2,57,0.00,OVC,FEW,0.00,WeatherDisplay:10.37,2013-08-19 23:17:00,
2013-08-19 18:22:00,82.0,65.3,30.03,WSW,238,0.1,1.2,57,0.00,OVC,FEW,0.00,WeatherDisplay:10.37,2013-08-19 23:22:00,
2013-08-19 18:27:00,81.9,65.2,30.03,WSW,238,0.0,0.0,57,0.00,OVC,FEW,0.00,WeatherDisplay:10.37,2013-08-19 23:27:00,
2013-08-19 18:32:00,81.8,65.6,30.02,WSW,238,0.2,0.0,58,0.00,OVC,FEW,0.00,WeatherDisplay:10.37,2013-08-19 23:32:00,
2013-08-19 18:37:00,81.5,65.3,30.02,WSW,240,0.4,2.3,58,0.00,OVC,FEW,0.00,WeatherDisplay:10.37,2013-08-19 23:37:00,
2013-08-19 18:42:00,81.3,65.1,30.02,South,186,0.1,1.2,58,0.00,OVC,FEW,0.00,WeatherDisplay:10.37,2013-08-19 23:42:00,
2013-08-19 18:47:00,81.1,65.4,30.02,South,186,0.0,1.2,59,0.00,OVC,FEW,0.00,WeatherDisplay:10.37,2013-08-19 23:47:00,
2013-08-19 18:52:00,81.0,65.3,30.02,South,186,0.0,1.0,59,0.00,OVC,FEW,0.00,WeatherDisplay:10.37,2013-08-19 23:52:00,
2013-08-19 18:57:00,80.8,65.1,30.03,SW,229,0.7,2.3,59,0.00,OVC,FEW,0.00,WeatherDisplay:10.37,2013-08-19 23:57:00,
2013-08-19 19:02:00,80.6,64.9,30.03,West,259,0.8,1.2,59,0.00,OVC,FEW,0.00,WeatherDisplay:10.37,2013-08-20 00:02:00,
2013-08-19 19:07:00,80.5,65.3,30.03,West,259,0.0,1.0,60,0.00,OVC,FEW,0.00,WeatherDisplay:10.37,2013-08-20 00:07:00,
2013-08-19 19:12:00,80.3,65.1,30.03,SSW,208,0.1,2.3,60,0.00,OVC,FEW,0.00,WeatherDisplay:10.37,2013-08-20 00:12:00,
2013-08-19 19:17:00,80.2,65.5,30.03,SSW,208,0.0,0.0,61,0.00,OVC,FEW,0.00,WeatherDisplay:10.37,2013-08-20 00:17:00,
2013-08-19 19:22:00,80.0,65.3,30.03,West,274,0.3,1.2,61,0.00,OVC,FEW,0.00,WeatherDisplay:10.37,2013-08-20 00:22:00,
2013-08-19 19:27:00,79.9,65.2,30.03,West,275,0.1,0.0,61,0.00,OVC,FEW,0.00,WeatherDisplay:10.37,2013-08-20 00:27:00,
2013-08-19 19:32:00,79.7,65.1,30.03,West,275,0.0,0.0,61,0.00,OVC,FEW,0.00,WeatherDisplay:10.37,2013-08-20 00:32:00,
2013-08-19 19:37:00,79.5,65.3,30.03,West,275,0.1,1.2,62,0.00,OVC,FEW,0.00,WeatherDisplay:10.37,2013-08-20 00:37:00,
2013-08-19 19:42:00,79.3,65.1,30.03,WSW,253,0.0,1.2,62,0.00,OVC,FEW,0.00,WeatherDisplay:10.37,2013-08-20 00:42:00,
2013-08-19 19:47:00,79.1,65.0,30.03,WSW,253,0.0,0.0,62,0.00,OVC,FEW,0.00,WeatherDisplay:10.37,2013-08-20 00:47:00,
2013-08-19 19:52:00,78.9,65.2,30.03,WSW,253,0.0,0.0,63,0.00,OVC,FEW,0.00,WeatherDisplay:10.37,2013-08-20 00:52:00,
2013-08-19 19:57:00,78.6,65.4,30.03,WSW,253,0.2,1.2,64,0.00,OVC,FEW,0.00,WeatherDisplay:10.37,2013-08-20 00:57:00,
2013-08-19 20:02:00,78.3,65.1,30.03,WSW,253,0.0,0.0,64,0.00,OVC,FEW,0.00,WeatherDisplay:10.37,2013-08-20 01:02:00,
2013-08-19 20:07:00,78.0,65.3,30.03,WSW,253,0.1,1.2,65,0.00,OVC,FEW,0.00,WeatherDisplay:10.37,2013-08-20 01:07:00,
2013-08-19 20:12:00,77.8,65.5,30.03,WSW,253,0.0,0.0,66,0.00,OVC,FEW,0.00,WeatherDisplay:10.37,2013-08-20 01:12:00,
2013-08-19 20:17:00,77.5,65.2,30.03,WSW,253,0.0,0.0,66,0.00,OVC,FEW,0.00,WeatherDisplay:10.37,2013-08-20 01:17:00,
2013-08-19 20:22:00,77.3,65.5,30.03,WSW,253,0.0,0.0,67,0.00,OVC,FEW,0.00,WeatherDisplay:10.37,2013-08-20 01:22:00,
2013-08-19 20:27:00,77.1,65.3,30.03,WSW,253,0.0,0.0,67,0.00,OVC,FEW,0.00,WeatherDisplay:10.37,2013-08-20 01:27:00,
2013-08-19 20:32:00,76.8,65.4,30.03,WSW,253,0.0,0.0,68,0.00,OVC,FEW,0.00,WeatherDisplay:10.37,2013-08-20 01:32:00,
2013-08-19 20:37:00,76.6,65.7,30.03,WSW,253,0.0,0.0,69,0.00,OVC,FEW,0.00,WeatherDisplay:10.37,2013-08-20 01:37:00,
2013-08-19 20:42:00,76.4,65.9,30.03,WSW,253,0.0,0.0,70,0.00,OVC,FEW,0.00,WeatherDisplay:10.37,2013-08-20 01:42:00,
2013-08-19 20:47:00,76.1,65.6,30.04,WSW,253,0.0,0.0,70,0.00,OVC,FEW,0.00,WeatherDisplay:10.37,2013-08-20 01:47:00,
2013-08-19 20:52:00,75.9,65.8,30.04,WSW,253,0.0,0.0,71,0.00,OVC,FEW,0.00,WeatherDisplay:10.37,2013-08-20 01:52:00,
2013-08-19 20:57:00,75.7,66.0,30.04,WSW,253,0.0,0.0,72,0.00,OVC,FEW,0.00,WeatherDisplay:10.37,2013-08-20 01:57:00,
2013-08-19 21:02:00,75.5,65.8,30.04,WSW,253,0.0,0.0,72,0.00,OVC,FEW,0.00,WeatherDisplay:10.37,2013-08-20 02:02:00,
2013-08-19 21:07:00,75.3,66.0,30.04,WSW,253,0.0,0.0,73,0.00,OVC,FEW,0.00,WeatherDisplay:10.37,2013-08-20 02:07:00,
2013-08-19 21:12:00,75.2,66.3,30.04,WSW,253,0.0,0.0,74,0.00,OVC,FEW,0.00,WeatherDisplay:10.37,2013-08-20 02:12:00,
2013-08-19 21:17:00,75.0,66.1,30.05,WSW,253,0.0,0.0,74,0.00,OVC,FEW,0.00,WeatherDisplay:10.37,2013-08-20 02:17:00,
2013-08-19 21:22:00,74.8,66.0,30.05,WSW,253,0.0,0.0,74,0.00,OVC,FEW,0.00,WeatherDisplay:10.37,2013-08-20 02:22:00,
2013-08-19 21:27:00,74.7,65.9,30.05,WSW,253,0.0,0.0,74,0.00,OVC,FEW,0.00,WeatherDisplay:10.37,2013-08-20 02:27:00,
2013-08-19 21:32:00,74.5,66.1,30.05,WSW,253,0.0,0.0,75,0.00,OVC,FEW,0.00,WeatherDisplay:10.37,2013-08-20 02:32:00,
2013-08-19 21:37:00,74.4,66.3,30.05,WSW,253,0.0,0.0,76,0.00,OVC,FEW,0.00,WeatherDisplay:10.37,2013-08-20 02:37:00,
2013-08-19 21:42:00,74.3,66.2,30.05,WSW,253,0.0,0.0,76,0.00,OVC,FEW,0.00,WeatherDisplay:10.37,2013-08-20 02:42:00,
2013-08-19 21:47:00,74.2,66.1,30.05,WSW,253,0.0,0.0,76,0.00,OVC,FEW,0.00,WeatherDisplay:10.37,2013-08-20 02:47:00,
2013-08-19 21:52:00,74.0,66.0,30.04,WSW,253,0.0,0.0,76,0.00,OVC,FEW,0.00,WeatherDisplay:10.37,2013-08-20 02:52:00,
2013-08-19 21:57:00,74.0,66.0,30.04,WSW,253,0.0,0.0,76,0.00,OVC,FEW,0.00,WeatherDisplay:10.37,2013-08-20 02:57:00,
2013-08-19 22:02:00,73.9,65.9,30.04,WSW,253,0.0,0.0,76,0.00,OVC,FEW,0.00,WeatherDisplay:10.37,2013-08-20 03:02:00,
2013-08-19 22:07:00,73.9,65.9,30.04,WSW,253,0.0,0.0,76,0.00,OVC,FEW,0.00,WeatherDisplay:10.37,2013-08-20 03:07:00,
2013-08-19 22:12:00,73.9,65.9,30.04,WSW,253,0.0,0.0,76,0.00,OVC,FEW,0.00,WeatherDisplay:10.37,2013-08-20 03:12:00,
2013-08-19 22:17:00,73.9,65.5,30.04,WSW,253,0.0,0.0,75,0.00,OVC,FEW,0.00,WeatherDisplay:10.37,2013-08-20 03:17:00,
2013-08-19 22:22:00,73.9,65.5,30.04,WSW,253,0.0,0.0,75,0.00,OVC,FEW,0.00,WeatherDisplay:10.37,2013-08-20 03:22:00,
2013-08-19 22:27:00,73.8,65.4,30.04,WSW,253,0.0,0.0,75,0.00,OVC,FEW,0.00,WeatherDisplay:10.37,2013-08-20 03:27:00,
2013-08-19 22:32:00,73.8,65.4,30.04,WSW,253,0.0,0.0,75,0.00,OVC,FEW,0.00,WeatherDisplay:10.37,2013-08-20 03:32:00,
2013-08-19 22:37:00,73.7,65.7,30.04,WSW,253,0.0,0.0,76,0.00,OVC,FEW,0.00,WeatherDisplay:10.37,2013-08-20 03:37:00,
2013-08-19 22:42:00,73.6,65.6,30.05,WSW,253,0.0,0.0,76,0.00,OVC,FEW,0.00,WeatherDisplay:10.37,2013-08-20 03:42:00,
2013-08-19 22:47:00,73.4,65.4,30.05,WSW,253,0.0,0.0,76,0.00,OVC,FEW,0.00,WeatherDisplay:10.37,2013-08-20 03:47:00,
2013-08-19 22:52:00,73.3,65.7,30.04,WSW,253,0.0,0.0,77,0.00,OVC,FEW,0.00,WeatherDisplay:10.37,2013-08-20 03:52:00,
2013-08-19 22:57:00,73.1,65.5,30.04,WSW,253,0.0,0.0,77,0.00,OVC,FEW,0.00,WeatherDisplay:10.37,2013-08-20 03:57:00,
2013-08-19 23:01:00,73.1,65.5,30.05,WSW,253,0.0,0.0,77,0.00,OVC,FEW,0.00,WeatherDisplay:10.37,2013-08-20 04:01:00,
2013-08-19 23:06:00,73.0,65.4,30.05,WSW,253,0.0,0.0,77,0.00,OVC,FEW,0.00,WeatherDisplay:10.37,2013-08-20 04:06:00,
2013-08-19 23:11:00,72.9,65.3,30.05,WSW,253,0.0,0.0,77,0.00,OVC,FEW,0.00,WeatherDisplay:10.37,2013-08-20 04:11:00,
2013-08-19 23:16:00,72.9,65.3,30.05,WSW,253,0.0,0.0,77,0.00,OVC,FEW,0.00,WeatherDisplay:10.37,2013-08-20 04:16:00,
2013-08-19 23:21:00,72.8,65.2,30.04,WSW,253,0.0,0.0,77,0.00,OVC,FEW,0.00,WeatherDisplay:10.37,2013-08-20 04:21:00,
2013-08-19 23:26:00,72.7,65.1,30.04,WSW,253,0.0,0.0,77,0.00,OVC,FEW,0.00,WeatherDisplay:10.37,2013-08-20 04:26:00,
2013-08-19 23:31:00,72.7,65.1,30.04,WSW,253,0.0,0.0,77,0.00,OVC,FEW,0.00,WeatherDisplay:10.37,2013-08-20 04:31:00,
2013-08-19 23:36:00,72.6,65.3,30.04,WSW,253,0.0,0.0,78,0.00,OVC,FEW,0.00,WeatherDisplay:10.37,2013-08-20 04:36:00,
2013-08-19 23:41:00,72.6,65.0,30.04,WSW,253,0.0,0.0,77,0.00,OVC,FEW,0.00,WeatherDisplay:10.37,2013-08-20 04:41:00,
2013-08-19 23:46:00,72.5,65.2,30.04,WSW,253,0.0,0.0,78,0.00,OVC,FEW,0.00,WeatherDisplay:10.37,2013-08-20 04:46:00,
2013-08-19 23:51:00,72.5,65.2,30.04,WSW,253,0.1,0.0,78,0.00,OVC,FEW,0.00,WeatherDisplay:10.37,2013-08-20 04:51:00,
2013-08-19 23:56:00,72.5,65.2,30.04,WSW,253,0.0,0.0,78,0.00,OVC,FEW,0.00,WeatherDisplay:10.37,2013-08-20 04:56:00,